Location: Bayou Vista
(29.6905°N, 91.2709°W)
Time: 16:21:05
(UTC+00:00)

Gurwin Techsat 1B - Visible Passes

Search period start: 08 September 2024 00:00
Search period end: 18 September 2024 00:00
Orbit: 811 x 812 km, 98.9° (Epoch: 07 September)

Date Brightness Start Highest point End Pass type
(mag) Time Alt. Az. Time Alt. Az. Time Alt. Az.
08 Sep 10.0 09:09:18 10° NE 09:14:04 33° E 09:15:22 29° SE visible
08 Sep 9.8 10:49:36 10° NNW 10:53:41 23° WNW 10:56:32 15° WSW visible
09 Sep 10.8 08:46:58 10° NE 08:50:40 19° E 08:51:44 18° ESE visible
09 Sep 9.1 10:25:41 10° N 10:30:34 39° WNW 10:32:54 26° WSW visible
10 Sep 11.4 08:26:57 10° E 08:27:12 10° E 08:27:26 10° E visible
10 Sep 8.5 10:02:07 10° N 10:07:24 69° WNW 10:09:16 40° SW visible
11 Sep 8.8 09:38:51 10° NNE 09:44:08 69° ESE 09:45:37 47° SSE visible
11 Sep 10.5 11:21:45 10° NW 11:23:21 11° WNW 11:24:57 10° W visible
12 Sep 9.8 09:15:53 10° NNE 09:20:49 39° E 09:21:59 34° SE visible
12 Sep 9.9 10:56:35 10° NNW 11:00:21 20° WNW 11:03:09 14° WSW visible
13 Sep 10.6 08:53:21 10° NE 08:57:26 22° E 08:58:20 21° ESE visible
13 Sep 9.3 10:32:31 10° N 10:37:15 34° WNW 10:39:30 24° WSW visible
14 Sep 11.3 08:31:56 10° ENE 08:33:58 12° E 08:34:41 12° ESE visible
14 Sep 8.6 10:08:53 10° N 10:14:05 59° WNW 10:15:51 39° SW visible
15 Sep 8.6 09:45:31 10° NNE 09:50:51 80° ESE 09:52:12 51° S visible
16 Sep 9.5 09:22:28 10° NNE 09:27:32 45° E 09:28:33 40° SE visible
16 Sep 10.1 11:03:36 10° NNW 11:06:59 17° WNW 11:09:43 12° W visible
17 Sep 10.4 08:59:48 10° NE 09:04:09 26° E 09:04:54 25° ESE visible
17 Sep 9.5 10:39:23 10° NNW 10:43:54 29° WNW 10:46:04 22° WSW visible
